EW4784 Weather Reports


Display with metric or nautical units.
time (UTC)temp
F
wind
direction
speed
MPH
gust
MPH
rain 1hr
in
rain 24hr
in
rain mn
in
humidity
%
barometer
mb
20260502222451 48 350 9.0 17.0 0.00 0.00 0.00 44
20260502221950 48 312 4.0 13.0 0.00 0.00 0.00 44
20260502221449 49 331 7.0 14.0 0.00 0.00 0.00 45
20260502220948 49 330 9.0 23.0 0.00 0.00 0.00 43
20260502220446 49 348 6.0 15.0 0.00 0.00 0.00 43
20260502215946 49 329 7.0 16.0 0.00 0.00 0.00 42
20260502215506 50 338 10.0 20.0 0.00 0.00 0.00 42
20260502214944 49 342 11.0 19.0 0.00 0.00 0.00 42
20260502214443 47 349 10.0 21.0 0.00 0.00 0.00 44
20260502213941 48 348 13.0 22.0 0.00 0.00 0.00 45
20260502213441 48 344 9.0 15.0 0.00 0.00 0.00 44
20260502212940 48 325 7.0 15.0 0.00 0.00 0.00 44
20260502212459 48 351 8.0 15.0 0.00 0.00 0.00 45
20260502211938 47 354 13.0 22.0 0.00 0.00 0.00 45
20260502211458 47 324 11.0 23.0 0.00 0.00 0.00 44
20260502210935 48 317 10.0 24.0 0.00 0.00 0.00 44
20260502210435 47 340 8.0 23.0 0.00 0.00 0.00 45
20260502210025 47 343 10.0 17.0 0.00 0.00 0.00 46
20260502205954 47 343 10.0 17.0 0.00 0.00 0.00 46
20260502205433 47 356 12.0 22.0 0.00 0.00 0.00 46
20260502204932 47 326 11.0 20.0 0.00 0.00 0.00 45
20260502204430 47 327 6.0 14.0 0.00 0.00 0.00 45
20260502203930 48 318 10.0 24.0 0.00 0.00 0.00 43
20260502203429 49 335 6.0 15.0 0.00 0.00 0.00 44
20260502202949 48 347 7.0 14.0 0.00 0.00 0.00 44
20260502202427 48 339 10.0 20.0 0.00 0.00 0.00 44
20260502201925 47 323 11.0 21.0 0.00 0.00 0.00 46
20260502201425 47 336 8.0 23.0 0.00 0.00 0.00 47
20260502200924 47 318 12.0 26.0 0.00 0.00 0.00 46
20260502200423 47 350 11.0 20.0 0.00 0.00 0.00 45
20260502195942 47 327 12.0 21.0 0.00 0.00 0.00 43
20260502195421 47 312 8.0 17.0 0.00 0.00 0.00 45
20260502194919 47 319 12.0 20.0 0.00 0.00 0.00 45
20260502194418 47 328 11.0 23.0 0.00 0.00 0.00 46
20260502193939 47 311 11.0 26.0 0.00 0.00 0.00 45
20260502193416 47 312 7.0 15.0 0.00 0.00 0.00 46
20260502192916 47 332 11.0 25.0 0.00 0.00 0.00 44
20260502192435 47 343 11.0 22.0 0.00 0.00 0.00 46
20260502191913 47 325 10.0 22.0 0.00 0.00 0.00 45
20260502191412 47 329 9.0 19.0 0.00 0.00 0.00 45
20260502190911 48 331 8.0 17.0 0.00 0.00 0.00 45
20260502190410 48 296 5.0 13.0 0.00 0.00 0.00 45
20260502185909 48 338 8.0 22.0 0.00 0.00 0.00 45
20260502185408 47 316 10.0 22.0 0.00 0.00 0.00 44
20260502184908 48 341 8.0 18.0 0.00 0.00 0.00 46
20260502184406 48 352 11.0 20.0 0.00 0.00 0.00 46
20260502183927 49 313 11.0 24.0 0.00 0.00 0.00 43
20260502183425 48 0 7.0 15.0 0.00 0.00 0.00 43
20260502182903 47 332 10.0 18.0 0.00 0.00 0.00 42
20260502182423 48 329 10.0 19.0 0.00 0.00 0.00 43
20260502181901 48 322 11.0 21.0 0.00 0.00 0.00 43
20260502181400 48 328 7.0 16.0 0.00 0.00 0.00 43
20260502180921 49 313 9.0 23.0 0.00 0.00 0.00 42
20260502180358 50 337 12.0 21.0 0.00 0.00 0.00 40
20260502170346 49 310 9.0 22.0 0.00 0.00 0.00 42
20260502163841 47 333 6.0 14.0 0.00 0.00 0.00 43
20260502163340 47 350 14.0 26.0 0.00 0.00 0.00 43
20260502162900 47 335 16.0 26.0 0.00 0.00 0.00 42
20260502162338 48 316 11.0 23.0 0.00 0.00 0.00 41
20260502161837 47 338 7.0 16.0 0.00 0.00 0.00 43
20260502161336 47 352 12.0 22.0 0.00 0.00 0.00 44
20260502160835 48 341 11.0 26.0 0.00 0.00 0.00 42
20260502160334 49 339 12.0 21.0 0.00 0.00 0.00 42
20260502152326 47 4 8.0 14.0 0.00 0.00 0.00 46
20260502151825 46 348 11.0 18.0 0.00 0.00 0.00 50
20260502151324 45 358 10.0 21.0 0.00 0.00 0.00 48
20260502150823 47 355 11.0 25.0 0.00 0.00 0.00 48
20260502150322 48 354 12.0 22.0 0.00 0.00 0.00 47
20260502130257 42 10 7.0 14.0 0.00 0.00 0.00 69
20260502123813 41 358 5.0 15.0 0.00 0.00 0.00 75
20260502123252 40 6 6.0 11.0 0.00 0.00 0.00 76
20260502122750 40 18 5.0 11.0 0.00 0.00 0.00 77
20260502122249 39 3 5.0 9.0 0.00 0.00 0.00 79
20260502121748 39 350 9.0 13.0 0.00 0.00 0.00 80
20260502121247 38 348 8.0 16.0 0.00 0.00 0.00 82
20260502120746 38 357 12.0 17.0 0.00 0.00 0.00 84
20260502120245 38 10 7.0 14.0 0.00 0.00 0.00 85
20260502115745 38 338 5.0 11.0 0.00 0.00 0.00 85
20260502115244 37 355 4.0 8.0 0.00 0.00 0.00 85
20260502114743 37 354 7.0 12.0 0.00 0.00 0.00 85
20260502114302 37 353 6.0 13.0 0.00 0.00 0.00 87
20260502113741 36 355 5.0 10.0 0.00 0.00 0.00 88
20260502113239 36 356 4.0 10.0 0.00 0.00 0.00 89
20260502112738 35 2 4.0 7.0 0.00 0.00 0.00 91
20260502112237 35 4 2.0 6.0 0.00 0.00 0.00 91
20260502111736 34 9 0.0 3.0 0.00 0.00 0.00 91
20260502111236 34 277 0.0 0.0 0.00 0.00 0.00 90
20260502110734 34 275 0.0 0.0 0.00 0.00 0.00 90
20260502110254 34 274 0.0 0.0 0.00 0.00 0.00 90
20260502105753 34 274 0.0 0.0 0.00 0.00 0.00 90
20260502105253 34 274 0.0 0.0 0.00 0.00 0.00 89
20260502104752 34 274 0.0 0.0 0.00 0.00 0.00 89
20260502104229 34 274 0.0 0.0 0.00 0.00 0.00 89
20260502103728 34 274 0.0 0.0 0.00 0.00 0.00 89
20260502103227 34 274 0.0 0.0 0.00 0.00 0.00 88
20260502102726 34 257 0.0 0.0 0.00 0.00 0.00 88
20260502102226 34 244 0.0 0.0 0.00 0.00 0.00 88
20260502101726 34 244 0.0 0.0 0.00 0.00 0.00 88
20260502101223 35 244 0.0 0.0 0.00 0.00 0.00 87
20260502100722 35 244 0.0 0.0 0.00 0.00 0.00 87
20260502100221 35 244 0.0 0.0 0.00 0.00 0.00 87
20260502091232 36 244 0.0 0.0 0.00 0.00 0.00 84
20260502090731 36 244 0.0 0.0 0.00 0.00 0.00 84
20260502090209 36 244 0.0 0.0 0.00 0.00 0.00 84
20260502071146 37 149 0.0 0.0 0.00 0.00 0.00 81
20260502070646 37 160 1.0 7.0 0.00 0.00 0.00 80
20260502070145 37 162 2.0 6.0 0.00 0.00 0.00 80
20260502065644 37 161 3.0 7.0 0.00 0.00 0.00 80
20260502065143 37 176 1.0 5.0 0.00 0.00 0.00 80
20260502064643 37 167 1.0 4.0 0.00 0.00 0.00 79
20260502064141 37 165 1.0 4.0 0.00 0.00 0.00 79
20260502063640 37 179 2.0 8.0 0.00 0.00 0.00 79
20260502063139 37 186 1.0 7.0 0.00 0.00 0.00 79
20260502062659 37 174 1.0 7.0 0.00 0.00 0.00 79
20260502062137 37 175 1.0 7.0 0.00 0.00 0.00 78
20260502061635 37 184 2.0 7.0 0.00 0.00 0.00 78
20260502061135 37 180 1.0 6.0 0.00 0.00 0.00 78
20260502060633 37 158 0.0 4.0 0.00 0.00 0.00 78
20260502060133 37 158 3.0 6.0 0.00 0.00 0.00 77
20260502055653 38 167 4.0 8.0 0.00 0.00 0.00 77
20260502055131 38 175 1.0 6.0 0.00 0.00 0.00 77
20260502054630 38 150 2.0 9.0 0.00 0.00 0.00 77
20260502054149 38 133 2.0 7.0 0.00 0.00 0.00 77
20260502053628 38 151 3.0 7.0 0.00 0.00 0.00 77
20260502053127 38 147 1.0 6.0 0.00 0.00 0.00 77
20260502052626 38 154 2.0 7.0 0.00 0.00 0.00 77
20260502052125 38 110 0.0 3.0 0.00 0.00 0.00 78
20260502051624 38 164 2.0 6.0 0.00 0.00 0.00 78
20260502051123 38 160 1.0 6.0 0.00 0.00 0.00 78
20260502050622 38 158 1.0 5.0 0.00 0.00 0.00 78
20260502050120 38 158 1.0 4.0 0.00 0.00 0.00 77
20260502045620 38 168 2.0 6.0 0.00 0.00 0.00 77
20260502045140 38 153 1.0 7.0 0.00 0.00 0.00 78
20260502044639 38 168 1.0 6.0 0.00 0.00 0.00 78
20260502044117 38 155 2.0 7.0 0.00 0.00 0.00 78
20260502043615 38 150 3.0 8.0 0.00 0.00 0.00 78
20260502043114 38 129 1.0 5.0 0.00 0.00 0.00 78
20260502042635 38 160 3.0 10.0 0.00 0.00 0.00 78
20260502042113 38 170 3.0 7.0 0.00 0.00 0.00 78
20260502041612 38 160 4.0 10.0 0.00 0.00 0.00 78
20260502041110 39 156 2.0 9.0 0.00 0.00 0.00 79
20260502040610 39 146 3.0 9.0 0.00 0.00 0.00 79
20260502040109 39 135 4.0 14.0 0.00 0.00 0.00 78
20260502035608 39 145 5.0 9.0 0.00 0.00 0.00 78
20260502035106 39 137 3.0 8.0 0.00 0.00 0.00 78
20260502034606 39 148 5.0 12.0 0.00 0.00 0.00 78
20260502034104 39 143 7.0 15.0 0.00 0.00 0.00 77
20260502033604 39 126 5.0 11.0 0.00 0.00 0.00 76
20260502033103 39 122 7.0 15.0 0.00 0.00 0.00 74
20260502032602 39 119 3.0 12.0 0.00 0.00 0.00 73
20260502032100 40 123 4.0 14.0 0.00 0.00 0.00 72
20260502031559 40 102 2.0 8.0 0.00 0.00 0.00 71
20260502031058 40 104 2.0 9.0 0.00 0.00 0.00 69
20260502030557 40 95 2.0 11.0 0.00 0.00 0.00 70
20260502030117 41 99 1.0 8.0 0.00 0.00 0.00 69
20260502025616 41 109 2.0 12.0 0.00 0.00 0.00 68
20260502025055 41 87 5.0 15.0 0.00 0.00 0.00 67
20260502024554 42 93 4.0 11.0 0.00 0.00 0.00 67
20260502024053 42 50 5.0 15.0 0.00 0.00 0.00 66
20260502023551 42 6 11.0 20.0 0.00 0.00 0.00 61
20260502023050 43 2 6.0 9.0 0.00 0.00 0.00 60
20260502022549 43 0 7.0 14.0 0.00 0.00 0.00 60
20260502022048 43 10 7.0 17.0 0.00 0.00 0.00 61
20260502021547 43 8 7.0 14.0 0.00 0.00 0.00 61
20260502021046 43 351 8.0 13.0 0.00 0.00 0.00 60
20260502020545 43 353 6.0 13.0 0.00 0.00 0.00 61
20260502020045 43 348 5.0 15.0 0.00 0.00 0.00 60
20260502015543 43 358 9.0 18.0 0.00 0.00 0.00 61
20260502015042 43 358 9.0 19.0 0.00 0.00 0.00 62
20260502014541 43 6 5.0 12.0 0.00 0.00 0.00 63
20260502014041 43 342 7.0 14.0 0.00 0.00 0.00 62
20260502013540 43 354 7.0 12.0 0.00 0.00 0.00 63
20260502013038 43 354 6.0 11.0 0.00 0.00 0.00 64
20260502012537 43 353 4.0 10.0 0.00 0.00 0.00 64
20260502012036 43 338 3.0 9.0 0.00 0.00 0.00 63
20260502011535 43 354 5.0 10.0 0.00 0.00 0.00 63
20260502011034 43 351 4.0 9.0 0.00 0.00 0.00 63
20260502010533 43 356 4.0 9.0 0.00 0.00 0.00 64
20260502010032 43 1 6.0 11.0 0.00 0.00 0.00 63
20260502005553 43 351 5.0 14.0 0.00 0.00 0.00 63
20260502005030 43 353 7.0 12.0 0.00 0.00 0.00 62
20260502004529 43 358 7.0 13.0 0.00 0.00 0.00 63
20260502004029 43 3 6.0 13.0 0.00 0.00 0.00 64
20260502003528 43 355 8.0 13.0 0.00 0.00 0.00 61
20260502003047 44 356 11.0 17.0 0.00 0.00 0.00 61
20260502002525 44 349 9.0 16.0 0.00 0.00 0.00 61
20260502002024 44 354 6.0 15.0 0.00 0.00 0.00 62
20260502001523 44 346 8.0 14.0 0.00 0.00 0.00 61
20260502001022 44 352 7.0 17.0 0.00 0.00 0.00 61
20260502000521 44 345 10.0 16.0 0.00 0.00 0.00 61
20260502000020 44 4 10.0 20.0 0.00 0.00 0.00 61
20260501235519 44 348 8.0 25.0 0.00 0.00 0.00 61
20260501235018 44 358 8.0 13.0 0.00 0.00 0.00 60
20260501234539 44 348 11.0 20.0 0.00 0.00 0.00 60
20260501234016 44 351 9.0 15.0 0.00 0.00 0.00 60
20260501233515 44 357 10.0 18.0 0.00 0.00 0.00 60
20260501233035 44 349 10.0 17.0 0.00 0.00 0.00 61
20260501232513 45 351 14.0 23.0 0.00 0.00 0.00 62
20260501232012 45 14 9.0 16.0 0.00 0.00 0.00 61
20260501231511 45 349 8.0 19.0 0.00 0.00 0.00 61
20260501231010 45 3 10.0 19.0 0.00 0.00 0.00 62
20260501230509 45 4 10.0 23.0 0.00 0.00 0.00 62
20260501230008 45 352 8.0 16.0 0.00 0.00 0.00 61
20260501225506 45 10 8.0 17.0 0.00 0.00 0.00 61
20260501225006 45 12 6.0 16.0 0.00 0.00 0.00 61
20260501224505 45 0 8.0 16.0 0.00 0.00 0.00 61
20260501224004 45 352 11.0 20.0 0.00 0.00 0.00 60
20260501223524 45 0 7.0 17.0 0.00 0.00 0.00 60
20260501223002 45 0 13.0 23.0 0.00 0.00 0.00 61